| time (UTC) | temp F | wind direction | speed MPH | gust MPH | rain 1hr in | rain 24hr in | rain mn in | humidity % | barometer mb |
| 20260901060009 | 77 | 198 | 7.0 | 13.0 | 0.00 | 0.00 | 0.00 | 75 | 1014.2 |
| 20260901055509 | 77 | 173 | 5.0 | 13.0 | 0.00 | 0.00 | 0.00 | 75 | 1014.2 |
| 20260901055009 | 77 | 203 | 7.0 | 12.0 | 0.00 | 0.00 | 0.00 | 75 | 1014.2 |
| 20260901054509 | 77 | 201 | 4.0 | 15.0 | 0.00 | 0.00 | 0.00 | 75 | 1014.3 |
| 20260901054008 | 77 | 210 | 3.0 | 15.0 | 0.00 | 0.00 | 0.00 | 74 | 1014.5 |
| 20260901053507 | 77 | 211 | 6.0 | 13.0 | 0.00 | 0.00 | 0.00 | 74 | 1014.5 |
| 20260901053009 | 77 | 245 | 6.0 | 14.0 | 0.00 | 0.00 | 0.00 | 74 | 1014.4 |
| 20260901052505 | 77 | 156 | 6.0 | 14.0 | 0.00 | 0.00 | 0.00 | 74 | 1014.5 |
| 20260901052009 | 77 | 202 | 6.0 | 13.0 | 0.00 | 0.00 | 0.00 | 74 | 1014.6 |
| 20260901051506 | 77 | 194 | 5.0 | 16.0 | 0.00 | 0.00 | 0.00 | 75 | 1014.6 |
| 20260901051004 | 77 | 220 | 5.0 | 16.0 | 0.00 | 0.00 | 0.00 | 75 | 1014.5 |
| 20260901050505 | 77 | 153 | 5.0 | 11.0 | 0.00 | 0.00 | 0.00 | 75 | 1014.5 |
| 20260901050003 | 77 | 181 | 5.0 | 10.0 | 0.00 | 0.00 | 0.00 | 75 | 1014.6 |
| 20260901045503 | 77 | 204 | 5.0 | 10.0 | 0.00 | 0.00 | 0.00 | 75 | 1014.6 |
| 20260901045002 | 77 | 203 | 5.0 | 10.0 | 0.00 | 0.00 | 0.00 | 75 | 1014.7 |
| 20260901044501 | 77 | 224 | 3.0 | 10.0 | 0.00 | 0.00 | 0.00 | 75 | 1014.7 |
| 20260901044101 | 77 | 226 | 5.0 | 10.0 | 0.00 | 0.00 | 0.00 | 75 | 1014.6 |
| 20260901043600 | 77 | 181 | 5.0 | 10.0 | 0.00 | 0.00 | 0.00 | 75 | 1014.6 |
| 20260901043124 | 76 | 240 | 4.0 | 13.0 | 0.00 | 0.00 | 0.00 | 76 | 1014.6 |
| 20260901042557 | 76 | 206 | 4.0 | 13.0 | 0.00 | 0.00 | 0.00 | 76 | 1014.6 |
| 20260901042056 | 76 | 165 | 4.0 | 12.0 | 0.00 | 0.00 | 0.00 | 76 | 1014.5 |
| 20260901041556 | 76 | 274 | 5.0 | 12.0 | 0.00 | 0.00 | 0.00 | 77 | 1014.5 |
| 20260901041056 | 76 | 173 | 5.0 | 10.0 | 0.00 | 0.00 | 0.00 | 78 | 1014.5 |
| 20260901040553 | 75 | 180 | 5.0 | 10.0 | 0.00 | 0.00 | 0.00 | 78 | 1014.4 |
| 20260901040106 | 75 | 185 | 5.0 | 10.0 | 0.00 | 0.00 | 0.00 | 79 | 1014.6 |
| 20260901035552 | 75 | 187 | 4.0 | 9.0 | 0.00 | 0.00 | 0.00 | 80 | 1014.8 |
| 20260901035051 | 75 | 218 | 4.0 | 9.0 | 0.00 | 0.00 | 0.00 | 80 | 1014.7 |
| 20260901034558 | 76 | 197 | 3.0 | 8.0 | 0.00 | 0.00 | 0.00 | 80 | 1014.7 |
| 20260901034051 | 76 | 201 | 2.0 | 7.0 | 0.00 | 0.00 | 0.00 | 80 | 1014.8 |
| 20260901033551 | 76 | 188 | 3.0 | 6.0 | 0.00 | 0.00 | 0.00 | 79 | 1014.7 |
| 20260901033107 | 76 | 185 | 1.0 | 6.0 | 0.00 | 0.00 | 0.00 | 79 | 1014.7 |
| 20260901032555 | 76 | 194 | 2.0 | 6.0 | 0.00 | 0.00 | 0.00 | 79 | 1014.7 |
| 20260901032052 | 76 | 173 | 2.0 | 6.0 | 0.00 | 0.00 | 0.00 | 79 | 1014.6 |
| 20260901031607 | 77 | 137 | 2.0 | 6.0 | 0.00 | 0.00 | 0.00 | 78 | 1014.7 |
| 20260901031050 | 77 | 204 | 3.0 | 6.0 | 0.00 | 0.00 | 0.00 | 78 | 1014.7 |
| 20260901030550 | 77 | 119 | 3.0 | 6.0 | 0.00 | 0.00 | 0.00 | 77 | 1014.8 |
| 20260901030052 | 76 | 144 | 2.0 | 9.0 | 0.00 | 0.00 | 0.00 | 77 | 1014.9 |
| 20260901025550 | 76 | 194 | 5.0 | 9.0 | 0.00 | 0.00 | 0.00 | 77 | 1014.9 |
| 20260901025050 | 76 | 198 | 3.0 | 10.0 | 0.00 | 0.00 | 0.00 | 76 | 1014.9 |
| 20260901024550 | 76 | 208 | 2.0 | 10.0 | 0.00 | 0.00 | 0.00 | 76 | 1014.8 |
| 20260901024049 | 76 | 231 | 3.0 | 9.0 | 0.00 | 0.00 | 0.00 | 76 | 1014.7 |
| 20260901023548 | 76 | 196 | 3.0 | 12.0 | 0.00 | 0.00 | 0.00 | 76 | 1014.5 |
| 20260901023052 | 76 | 213 | 6.0 | 12.0 | 0.00 | 0.00 | 0.00 | 76 | 1014.6 |
| 20260901022548 | 76 | 201 | 6.0 | 10.0 | 0.00 | 0.00 | 0.00 | 76 | 1014.5 |
| 20260901022048 | 76 | 162 | 5.0 | 10.0 | 0.00 | 0.00 | 0.00 | 76 | 1014.6 |
| 20260901021548 | 76 | 224 | 3.0 | 7.0 | 0.00 | 0.00 | 0.00 | 75 | 1014.7 |
| 20260901021048 | 76 | 189 | 3.0 | 9.0 | 0.00 | 0.00 | 0.00 | 75 | 1014.8 |
| 20260901020547 | 77 | 234 | 4.0 | 9.0 | 0.00 | 0.00 | 0.00 | 75 | 1014.9 |
| 20260901020047 | 77 | 229 | 3.0 | 10.0 | 0.00 | 0.00 | 0.00 | 74 | 1014.9 |
| 20260901015547 | 77 | 194 | 4.0 | 10.0 | 0.00 | 0.00 | 0.00 | 74 | 1014.9 |
| 20260901015046 | 77 | 233 | 2.0 | 7.0 | 0.00 | 0.00 | 0.00 | 74 | 1014.8 |
| 20260901014556 | 77 | 192 | 3.0 | 7.0 | 0.00 | 0.00 | 0.00 | 74 | 1014.9 |
| 20260901014045 | 77 | 264 | 3.0 | 6.0 | 0.00 | 0.00 | 0.00 | 74 | 1014.9 |
| 20260901013546 | 78 | 201 | 4.0 | 6.0 | 0.00 | 0.00 | 0.00 | 74 | 1015.0 |
| 20260901013049 | 78 | 188 | 3.0 | 4.0 | 0.00 | 0.00 | 0.00 | 73 | 1015.1 |
| 20260901012544 | 78 | 173 | 0.0 | 3.0 | 0.00 | 0.00 | 0.00 | 73 | 1015.2 |
| 20260901012144 | 79 | 112 | 0.0 | 4.0 | 0.00 | 0.00 | 0.00 | 72 | 1015.2 |
| 20260901011544 | 79 | 356 | 2.0 | 4.0 | 0.00 | 0.00 | 0.00 | 72 | 1015.3 |
| 20260901011044 | 79 | 342 | 2.0 | 4.0 | 0.00 | 0.00 | 0.00 | 72 | 1015.1 |
| 20260901010544 | 79 | 326 | 0.0 | 4.0 | 0.00 | 0.00 | 0.00 | 72 | 1014.9 |
| 20260901010044 | 79 | 218 | 1.0 | 4.0 | 0.00 | 0.00 | 0.00 | 72 | 1014.7 |
| 20260901005544 | 79 | 180 | 1.0 | 6.0 | 0.00 | 0.00 | 0.00 | 72 | 1014.6 |
| 20260901005046 | 79 | 248 | 1.0 | 9.0 | 0.00 | 0.00 | 0.00 | 72 | 1014.6 |
| 20260901004543 | 79 | 207 | 5.0 | 9.0 | 0.00 | 0.00 | 0.00 | 72 | 1014.5 |
| 20260901004041 | 80 | 179 | 3.0 | 10.0 | 0.00 | 0.00 | 0.00 | 72 | 1014.6 |
| 20260901003545 | 80 | 223 | 5.0 | 13.0 | 0.00 | 0.00 | 0.00 | 72 | 1014.6 |
| 20260901003050 | 80 | 290 | 6.0 | 13.0 | 0.00 | 0.00 | 0.00 | 72 | 1014.7 |
| 20260901002540 | 80 | 281 | 7.0 | 13.0 | 0.00 | 0.00 | 0.00 | 72 | 1014.9 |
| 20260901002040 | 80 | 279 | 5.0 | 11.0 | 0.00 | 0.00 | 0.00 | 73 | 1015.0 |
| 20260901001554 | 80 | 223 | 5.0 | 11.0 | 0.00 | 0.00 | 0.00 | 73 | 1015.1 |
| 20260901001039 | 80 | 331 | 3.0 | 10.0 | 0.00 | 0.00 | 0.00 | 72 | 1015.0 |
| 20260901000539 | 80 | 218 | 4.0 | 10.0 | 0.00 | 0.00 | 0.00 | 72 | 1015.0 |
| 20260901000039 | 80 | 223 | 4.0 | 15.0 | 0.00 | 0.00 | 0.00 | 71 | 1015.0 |
| 20260831235539 | 80 | 208 | 4.0 | 15.0 | 0.00 | 0.00 | 0.00 | 71 | 1015.0 |
| 20260831235041 | 81 | 234 | 4.0 | 12.0 | 0.00 | 0.00 | 0.00 | 70 | 1015.1 |
| 20260831234539 | 81 | 193 | 4.0 | 11.0 | 0.00 | 0.00 | 0.00 | 70 | 1015.1 |
| 20260831234038 | 81 | 198 | 3.0 | 9.0 | 0.00 | 0.00 | 0.00 | 70 | 1015.1 |
| 20260831233537 | 81 | 202 | 4.0 | 10.0 | 0.00 | 0.00 | 0.00 | 69 | 1015.2 |
| 20260831233039 | 81 | 271 | 4.0 | 10.0 | 0.00 | 0.00 | 0.00 | 69 | 1015.2 |
| 20260831232536 | 82 | 269 | 7.0 | 11.0 | 0.00 | 0.00 | 0.00 | 69 | 1015.2 |
| 20260831232036 | 82 | 218 | 6.0 | 11.0 | 0.00 | 0.00 | 0.00 | 68 | 1015.1 |
| 20260831231536 | 82 | 212 | 5.0 | 10.0 | 0.00 | 0.00 | 0.00 | 68 | 1015.2 |
| 20260831231035 | 82 | 212 | 3.0 | 10.0 | 0.00 | 0.00 | 0.00 | 68 | 1015.2 |
| 20260831230535 | 82 | 206 | 4.0 | 10.0 | 0.00 | 0.00 | 0.00 | 67 | 1015.4 |
| 20260831230035 | 83 | 264 | 5.0 | 10.0 | 0.00 | 0.00 | 0.00 | 67 | 1015.4 |
| 20260831225534 | 83 | 231 | 3.0 | 8.0 | 0.00 | 0.00 | 0.00 | 67 | 1015.4 |
| 20260831225034 | 83 | 225 | 3.0 | 8.0 | 0.00 | 0.00 | 0.00 | 67 | 1015.4 |
| 20260831224534 | 83 | 240 | 5.0 | 8.0 | 0.00 | 0.00 | 0.00 | 66 | 1015.5 |
| 20260831224034 | 83 | 241 | 2.0 | 8.0 | 0.00 | 0.00 | 0.00 | 66 | 1015.5 |
| 20260831223537 | 83 | 233 | 4.0 | 7.0 | 0.00 | 0.00 | 0.00 | 65 | 1015.5 |
| 20260831223034 | 83 | 230 | 4.0 | 8.0 | 0.00 | 0.00 | 0.00 | 65 | 1015.5 |
| 20260831222535 | 83 | 257 | 5.0 | 8.0 | 0.00 | 0.00 | 0.00 | 64 | 1015.5 |
| 20260831222034 | 84 | 240 | 1.0 | 7.0 | 0.00 | 0.00 | 0.00 | 64 | 1015.4 |
| 20260831221539 | 84 | 247 | 3.0 | 7.0 | 0.00 | 0.00 | 0.00 | 63 | 1015.5 |
| 20260831221033 | 84 | 236 | 1.0 | 7.0 | 0.00 | 0.00 | 0.00 | 63 | 1015.5 |
| 20260831220535 | 84 | 173 | 2.0 | 7.0 | 0.00 | 0.00 | 0.00 | 63 | 1015.5 |
| 20260831220033 | 84 | 309 | 0.0 | 7.0 | 0.00 | 0.00 | 0.00 | 62 | 1015.5 |
| 20260831215533 | 84 | 41 | 2.0 | 9.0 | 0.00 | 0.00 | 0.00 | 62 | 1015.6 |
| 20260831215032 | 84 | 226 | 3.0 | 8.0 | 0.00 | 0.00 | 0.00 | 63 | 1015.5 |
| 20260831214531 | 84 | 335 | 2.0 | 8.0 | 0.00 | 0.00 | 0.00 | 64 | 1015.5 |
| 20260831214029 | 84 | 223 | 3.0 | 6.0 | 0.00 | 0.00 | 0.00 | 65 | 1015.5 |
| 20260831213530 | 84 | 241 | 2.0 | 6.0 | 0.00 | 0.00 | 0.00 | 64 | 1015.6 |
| 20260831213029 | 84 | 271 | 2.0 | 6.0 | 0.00 | 0.00 | 0.00 | 65 | 1015.6 |
| 20260831212529 | 84 | 232 | 2.0 | 9.0 | 0.00 | 0.00 | 0.00 | 64 | 1015.6 |
| 20260831212029 | 84 | 252 | 2.0 | 9.0 | 0.00 | 0.00 | 0.00 | 64 | 1015.7 |
| 20260831211529 | 84 | 236 | 2.0 | 9.0 | 0.00 | 0.00 | 0.00 | 63 | 1015.7 |
| 20260831211028 | 84 | 273 | 2.0 | 10.0 | 0.00 | 0.00 | 0.00 | 63 | 1015.8 |
| 20260831210528 | 84 | 264 | 5.0 | 10.0 | 0.00 | 0.00 | 0.00 | 63 | 1015.8 |
| 20260831210028 | 84 | 330 | 1.0 | 8.0 | 0.00 | 0.00 | 0.00 | 64 | 1016.0 |
| 20260831205528 | 84 | 335 | 1.0 | 13.0 | 0.00 | 0.00 | 0.00 | 64 | 1016.0 |
| 20260831205032 | 84 | 326 | 2.0 | 13.0 | 0.00 | 0.00 | 0.00 | 63 | 1016.0 |
| 20260831204528 | 84 | 247 | 5.0 | 10.0 | 0.00 | 0.00 | 0.00 | 63 | 1015.9 |
| 20260831204028 | 85 | 304 | 2.0 | 6.0 | 0.00 | 0.00 | 0.00 | 63 | 1015.8 |
| 20260831203528 | 85 | 309 | 1.0 | 13.0 | 0.00 | 0.00 | 0.00 | 63 | 1015.7 |
| 20260831203028 | 85 | 323 | 6.0 | 13.0 | 0.00 | 0.00 | 0.00 | 64 | 1015.6 |
| 20260831202527 | 85 | 218 | 2.0 | 9.0 | 0.00 | 0.00 | 0.00 | 63 | 1015.6 |
| 20260831202027 | 85 | 223 | 2.0 | 9.0 | 0.00 | 0.00 | 0.00 | 64 | 1015.6 |
| 20260831201529 | 85 | 206 | 4.0 | 9.0 | 0.00 | 0.00 | 0.00 | 65 | 1015.7 |
| 20260831201027 | 85 | 252 | 3.0 | 9.0 | 0.00 | 0.00 | 0.00 | 65 | 1015.8 |
| 20260831200526 | 84 | 196 | 4.0 | 9.0 | 0.00 | 0.00 | 0.00 | 65 | 1015.8 |
| 20260831200031 | 84 | 222 | 3.0 | 11.0 | 0.00 | 0.00 | 0.00 | 66 | 1015.7 |
| 20260831195525 | 84 | 238 | 5.0 | 12.0 | 0.00 | 0.00 | 0.00 | 65 | 1015.7 |
| 20260831195025 | 83 | 247 | 4.0 | 12.0 | 0.00 | 0.00 | 0.00 | 66 | 1015.7 |
| 20260831194527 | 83 | 218 | 5.0 | 12.0 | 0.00 | 0.00 | 0.00 | 66 | 1015.7 |
| 20260831194027 | 83 | 278 | 1.0 | 7.0 | 0.00 | 0.00 | 0.00 | 65 | 1015.6 |
| 20260831193523 | 83 | 264 | 3.0 | 8.0 | 0.00 | 0.00 | 0.00 | 64 | 1015.5 |
| 20260831193022 | 84 | 218 | 3.0 | 8.0 | 0.00 | 0.00 | 0.00 | 63 | 1015.6 |
| 20260831192521 | 84 | 232 | 4.0 | 8.0 | 0.00 | 0.00 | 0.00 | 62 | 1015.8 |
| 20260831192019 | 84 | 290 | 1.0 | 14.0 | 0.00 | 0.00 | 0.00 | 61 | 1016.1 |
| 20260831191535 | 84 | 345 | 4.0 | 16.0 | 0.00 | 0.00 | 0.00 | 60 | 1016.2 |
| 20260831191019 | 85 | 257 | 7.0 | 17.0 | 0.00 | 0.00 | 0.00 | 59 | 1016.2 |
| 20260831190519 | 85 | 271 | 7.0 | 17.0 | 0.00 | 0.00 | 0.00 | 58 | 1016.3 |
| 20260831190021 | 85 | 245 | 4.0 | 15.0 | 0.00 | 0.00 | 0.00 | 59 | 1016.4 |
| 20260831185519 | 85 | 247 | 6.0 | 16.0 | 0.00 | 0.00 | 0.00 | 60 | 1016.3 |
| 20260831185018 | 85 | 238 | 6.0 | 13.0 | 0.00 | 0.00 | 0.00 | 61 | 1016.4 |
| 20260831184517 | 85 | 112 | 5.0 | 13.0 | 0.00 | 0.00 | 0.00 | 61 | 1016.4 |
| 20260831184021 | 85 | 183 | 4.0 | 13.0 | 0.00 | 0.00 | 0.00 | 62 | 1016.6 |
| 20260831183516 | 85 | 197 | 6.0 | 19.0 | 0.00 | 0.00 | 0.00 | 62 | 1016.5 |
| 20260831183016 | 85 | 223 | 8.0 | 19.0 | 0.00 | 0.00 | 0.00 | 62 | 1016.6 |
| 20260831182519 | 85 | 236 | 7.0 | 14.0 | 0.00 | 0.00 | 0.00 | 63 | 1016.7 |
| 20260831182016 | 84 | 231 | 6.0 | 14.0 | 0.00 | 0.00 | 0.00 | 63 | 1016.7 |
| 20260831181515 | 84 | 239 | 2.0 | 14.0 | 0.00 | 0.00 | 0.00 | 63 | 1016.7 |
| 20260831181016 | 84 | 329 | 6.0 | 14.0 | 0.00 | 0.00 | 0.00 | 64 | 1016.8 |
| 20260831180513 | 84 | 239 | 6.0 | 15.0 | 0.00 | 0.00 | 0.00 | 63 | 1016.9 |
| 20260831180014 | 84 | 230 | 5.0 | 18.0 | 0.00 | 0.00 | 0.00 | 62 | 1016.9 |
| 20260831175512 | 84 | 298 | 8.0 | 18.0 | 0.00 | 0.00 | 0.00 | 63 | 1017.0 |
| 20260831175012 | 84 | 4 | 4.0 | 17.0 | 0.00 | 0.00 | 0.00 | 62 | 1016.9 |
| 20260831174513 | 85 | 264 | 2.0 | 17.0 | 0.00 | 0.00 | 0.00 | 62 | 1017.0 |
| 20260831174112 | 85 | 225 | 5.0 | 17.0 | 0.00 | 0.00 | 0.00 | 62 | 1017.0 |
| 20260831173511 | 85 | 255 | 3.0 | 16.0 | 0.00 | 0.00 | 0.00 | 62 | 1016.9 |
| 20260831173014 | 85 | 295 | 4.0 | 16.0 | 0.00 | 0.00 | 0.00 | 62 | 1016.9 |
| 20260831172510 | 85 | 245 | 4.0 | 19.0 | 0.00 | 0.00 | 0.00 | 62 | 1016.9 |
| 20260831172014 | 85 | 235 | 8.0 | 19.0 | 0.00 | 0.00 | 0.00 | 61 | 1017.0 |
| 20260831171514 | 85 | 233 | 6.0 | 16.0 | 0.00 | 0.00 | 0.00 | 63 | 1016.9 |
| 20260831171008 | 85 | 278 | 6.0 | 13.0 | 0.00 | 0.00 | 0.00 | 63 | 1017.0 |
| 20260831170508 | 84 | 238 | 7.0 | 17.0 | 0.00 | 0.00 | 0.00 | 65 | 1017.0 |
| 20260831170006 | 84 | 252 | 8.0 | 22.0 | 0.00 | 0.00 | 0.00 | 64 | 1017.0 |
| 20260831165506 | 84 | 245 | 10.0 | 22.0 | 0.00 | 0.00 | 0.00 | 63 | 1017.0 |
| 20260831165005 | 84 | 231 | 7.0 | 15.0 | 0.00 | 0.00 | 0.00 | 63 | 1017.0 |
| 20260831164506 | 84 | 285 | 7.0 | 15.0 | 0.00 | 0.00 | 0.00 | 63 | 1017.1 |
| 20260831164004 | 84 | 227 | 9.0 | 14.0 | 0.00 | 0.00 | 0.00 | 63 | 1017.0 |
| 20260831163504 | 84 | 309 | 3.0 | 13.0 | 0.00 | 0.00 | 0.00 | 62 | 1017.0 |
| 20260831163007 | 84 | 220 | 7.0 | 13.0 | 0.00 | 0.00 | 0.00 | 61 | 1017.0 |
| 20260831162503 | 84 | 259 | 4.0 | 15.0 | 0.00 | 0.00 | 0.00 | 61 | 1016.9 |
| 20260831162003 | 85 | 259 | 8.0 | 17.0 | 0.00 | 0.00 | 0.00 | 61 | 1017.0 |
| 20260831161504 | 85 | 179 | 9.0 | 17.0 | 0.00 | 0.00 | 0.00 | 62 | 1017.1 |
| 20260831161001 | 85 | 247 | 8.0 | 19.0 | 0.00 | 0.00 | 0.00 | 63 | 1017.1 |
| 20260831160600 | 84 | 240 | 6.0 | 21.0 | 0.00 | 0.00 | 0.00 | 64 | 1017.0 |
| 20260831160104 | 84 | 207 | 8.0 | 21.0 | 0.00 | 0.00 | 0.00 | 63 | 1017.1 |
| 20260831155559 | 83 | 231 | 6.0 | 16.0 | 0.00 | 0.00 | 0.00 | 63 | 1017.2 |
| 20260831155058 | 83 | 220 | 10.0 | 16.0 | 0.00 | 0.00 | 0.00 | 62 | 1017.1 |
| 20260831154559 | 83 | 235 | 7.0 | 16.0 | 0.00 | 0.00 | 0.00 | 62 | 1017.1 |
| 20260831154100 | 83 | 276 | 5.0 | 19.0 | 0.00 | 0.00 | 0.00 | 61 | 1017.0 |
| 20260831153555 | 83 | 230 | 8.0 | 19.0 | 0.00 | 0.00 | 0.00 | 61 | 1017.0 |
| 20260831153054 | 83 | 184 | 6.0 | 13.0 | 0.00 | 0.00 | 0.00 | 63 | 1017.0 |
| 20260831152555 | 83 | 210 | 6.0 | 15.0 | 0.00 | 0.00 | 0.00 | 65 | 1017.1 |
| 20260831152055 | 83 | 218 | 7.0 | 16.0 | 0.00 | 0.00 | 0.00 | 66 | 1017.1 |
| 20260831151551 | 82 | 227 | 9.0 | 16.0 | 0.00 | 0.00 | 0.00 | 66 | 1017.1 |
| 20260831151150 | 82 | 223 | 6.0 | 12.0 | 0.00 | 0.00 | 0.00 | 69 | 1017.0 |
| 20260831150532 | 81 | 257 | 8.0 | 12.0 | 0.00 | 0.00 | 0.00 | 69 | 1017.2 |
| 20260831150035 | 81 | 239 | 4.0 | 11.0 | 0.00 | 0.00 | 0.00 | 70 | 1017.3 |
| 20260831145529 | 80 | 218 | 3.0 | 10.0 | 0.00 | 0.00 | 0.00 | 70 | 1017.3 |
| 20260831145033 | 80 | 226 | 5.0 | 12.0 | 0.00 | 0.00 | 0.00 | 71 | 1017.4 |
| 20260831144527 | 80 | 215 | 5.0 | 13.0 | 0.00 | 0.00 | 0.00 | 71 | 1017.2 |
| 20260831144026 | 79 | 211 | 7.0 | 14.0 | 0.00 | 0.00 | 0.00 | 71 | 1017.2 |
| 20260831143525 | 79 | 309 | 6.0 | 14.0 | 0.00 | 0.00 | 0.00 | 72 | 1017.1 |
| 20260831143024 | 79 | 218 | 7.0 | 17.0 | 0.00 | 0.00 | 0.00 | 72 | 1017.1 |
| 20260831142522 | 79 | 212 | 7.0 | 17.0 | 0.00 | 0.00 | 0.00 | 73 | 1017.1 |
| 20260831142020 | 78 | 218 | 8.0 | 16.0 | 0.00 | 0.00 | 0.00 | 74 | 1017.1 |
| 20260831141521 | 77 | 213 | 7.0 | 14.0 | 0.00 | 0.00 | 0.00 | 74 | 1017.0 |
| 20260831141018 | 77 | 218 | 6.0 | 13.0 | 0.00 | 0.00 | 0.00 | 75 | 1017.1 |
| 20260831140517 | 76 | 173 | 7.0 | 13.0 | 0.00 | 0.00 | 0.00 | 74 | 1017.2 |
| 20260831140016 | 76 | 169 | 6.0 | 12.0 | 0.00 | 0.00 | 0.00 | 74 | 1017.1 |
| 20260831135515 | 76 | 264 | 6.0 | 12.0 | 0.00 | 0.00 | 0.00 | 74 | 1017.2 |
| 20260831135015 | 76 | 220 | 4.0 | 10.0 | 0.00 | 0.00 | 0.00 | 73 | 1017.1 |
| 20260831134518 | 76 | 233 | 5.0 | 11.0 | 0.00 | 0.00 | 0.00 | 73 | 1017.1 |
| 20260831134013 | 76 | 234 | 5.0 | 14.0 | 0.00 | 0.00 | 0.00 | 73 | 1017.1 |
| 20260831133512 | 76 | 227 | 6.0 | 14.0 | 0.00 | 0.00 | 0.00 | 73 | 1017.1 |
| 20260831133023 | 76 | 232 | 6.0 | 12.0 | 0.00 | 0.00 | 0.00 | 73 | 1017.1 |
| 20260831132513 | 76 | 194 | 6.0 | 12.0 | 0.00 | 0.00 | 0.00 | 74 | 1017.1 |
| 20260831132011 | 75 | 218 | 5.0 | 9.0 | 0.00 | 0.00 | 0.00 | 74 | 1017.2 |
| 20260831131510 | 75 | 201 | 2.0 | 10.0 | 0.00 | 0.00 | 0.00 | 75 | 1017.1 |
| 20260831131008 | 75 | 240 | 4.0 | 10.0 | 0.00 | 0.00 | 0.00 | 75 | 1017.2 |
| 20260831130507 | 74 | 231 | 3.0 | 8.0 | 0.00 | 0.00 | 0.00 | 75 | 1017.1 |
| 20260831130007 | 74 | 188 | 3.0 | 10.0 | 0.00 | 0.00 | 0.00 | 76 | 1017.1 |
| 20260831125505 | 74 | 173 | 4.0 | 11.0 | 0.00 | 0.00 | 0.00 | 76 | 1017.1 |
| 20260831125004 | 74 | 222 | 4.0 | 11.0 | 0.00 | 0.00 | 0.00 | 76 | 1017.1 |
| 20260831124514 | 74 | 203 | 5.0 | 11.0 | 0.00 | 0.00 | 0.00 | 78 | 1016.9 |
| 20260831124002 | 73 | 195 | 6.0 | 11.0 | 0.00 | 0.00 | 0.00 | 78 | 1016.9 |
| 20260831123502 | 73 | 226 | 3.0 | 9.0 | 0.00 | 0.00 | 0.00 | 79 | 1016.9 |
| 20260831123101 | 73 | 192 | 5.0 | 16.0 | 0.00 | 0.00 | 0.00 | 79 | 1016.9 |
| 20260831122559 | 73 | 223 | 6.0 | 16.0 | 0.00 | 0.00 | 0.00 | 79 | 1017.0 |
| 20260831122059 | 73 | 227 | 6.0 | 13.0 | 0.00 | 0.00 | 0.00 | 79 | 1017.2 |
| 20260831121559 | 73 | 216 | 6.0 | 12.0 | 0.00 | 0.00 | 0.00 | 80 | 1017.2 |
| 20260831121057 | 73 | 243 | 4.0 | 8.0 | 0.00 | 0.00 | 0.00 | 80 | 1017.1 |
| 20260831120557 | 73 | 186 | 2.0 | 8.0 | 0.00 | 0.00 | 0.00 | 80 | 1017.0 |
| 20260831120056 | 73 | 204 | 3.0 | 12.0 | 0.00 | 0.00 | 0.00 | 80 | 1017.1 |
| 20260831115556 | 73 | 207 | 6.0 | 12.0 | 0.00 | 0.00 | 0.00 | 80 | 1017.1 |
| 20260831115054 | 73 | 203 | 6.0 | 13.0 | 0.00 | 0.00 | 0.00 | 80 | 1017.0 |
| 20260831114555 | 73 | 207 | 6.0 | 13.0 | 0.00 | 0.00 | 0.00 | 80 | 1017.1 |
| 20260831114053 | 73 | 173 | 6.0 | 12.0 | 0.00 | 0.00 | 0.00 | 80 | 1017.1 |
| 20260831113552 | 73 | 215 | 5.0 | 12.0 | 0.00 | 0.00 | 0.00 | 80 | 1017.1 |
| 20260831113052 | 73 | 224 | 4.0 | 9.0 | 0.00 | 0.00 | 0.00 | 80 | 1017.0 |
| 20260831112555 | 73 | 264 | 2.0 | 9.0 | 0.00 | 0.00 | 0.00 | 80 | 1017.0 |
| 20260831112056 | 73 | 196 | 5.0 | 9.0 | 0.00 | 0.00 | 0.00 | 80 | 1017.0 |
| 20260831111553 | 73 | 205 | 5.0 | 15.0 | 0.00 | 0.00 | 0.00 | 80 | 1017.0 |
| 20260831111051 | 73 | 204 | 4.0 | 15.0 | 0.00 | 0.00 | 0.00 | 80 | 1017.0 |
| 20260831110554 | 73 | 202 | 4.0 | 11.0 | 0.00 | 0.00 | 0.00 | 79 | 1016.9 |
| 20260831110051 | 73 | 188 | 4.0 | 10.0 | 0.00 | 0.00 | 0.00 | 79 | 1016.8 |
| 20260831105651 | 73 | 218 | 5.0 | 16.0 | 0.00 | 0.00 | 0.00 | 80 | 1016.8 |
| 20260831105053 | 73 | 173 | 5.0 | 16.0 | 0.00 | 0.00 | 0.00 | 79 | 1016.8 |
| 20260831104603 | 73 | 240 | 3.0 | 11.0 | 0.00 | 0.00 | 0.00 | 80 | 1016.7 |
| 20260831104049 | 73 | 206 | 4.0 | 10.0 | 0.00 | 0.00 | 0.00 | 80 | 1016.7 |
| 20260831103550 | 73 | 173 | 4.0 | 9.0 | 0.00 | 0.00 | 0.00 | 80 | 1016.6 |
| 20260831103055 | 73 | 142 | 3.0 | 8.0 | 0.00 | 0.00 | 0.00 | 80 | 1016.6 |
| 20260831102548 | 72 | 218 | 2.0 | 8.0 | 0.00 | 0.00 | 0.00 | 80 | 1016.4 |
| 20260831102048 | 72 | 243 | 5.0 | 11.0 | 0.00 | 0.00 | 0.00 | 80 | 1016.2 |
| 20260831101555 | 72 | 154 | 4.0 | 11.0 | 0.00 | 0.00 | 0.00 | 80 | 1016.3 |
| 20260831101048 | 72 | 186 | 5.0 | 10.0 | 0.00 | 0.00 | 0.00 | 80 | 1016.3 |
| 20260831100547 | 72 | 137 | 4.0 | 10.0 | 0.00 | 0.00 | 0.00 | 80 | 1016.4 |
| 20260831100048 | 72 | 278 | 3.0 | 10.0 | 0.00 | 0.00 | 0.00 | 80 | 1016.4 |
| 20260831095547 | 72 | 156 | 3.0 | 12.0 | 0.00 | 0.00 | 0.00 | 80 | 1016.4 |
| 20260831095047 | 72 | 187 | 4.0 | 12.0 | 0.00 | 0.00 | 0.00 | 79 | 1016.4 |
| 20260831094603 | 73 | 119 | 5.0 | 11.0 | 0.00 | 0.00 | 0.00 | 79 | 1016.3 |
| 20260831094047 | 73 | 137 | 3.0 | 8.0 | 0.00 | 0.00 | 0.00 | 79 | 1016.4 |
| 20260831093547 | 73 | 122 | 3.0 | 10.0 | 0.00 | 0.00 | 0.00 | 79 | 1016.3 |
| 20260831093047 | 73 | 203 | 3.0 | 12.0 | 0.00 | 0.00 | 0.00 | 79 | 1016.3 |
| 20260831092545 | 73 | 167 | 3.0 | 12.0 | 0.00 | 0.00 | 0.00 | 79 | 1016.4 |
| 20260831092045 | 73 | 214 | 4.0 | 10.0 | 0.00 | 0.00 | 0.00 | 79 | 1016.5 |
| 20260831091546 | 73 | 173 | 3.0 | 10.0 | 0.00 | 0.00 | 0.00 | 79 | 1016.5 |
| 20260831091044 | 73 | 173 | 6.0 | 10.0 | 0.00 | 0.00 | 0.00 | 79 | 1016.5 |
| 20260831090544 | 73 | 212 | 4.0 | 12.0 | 0.00 | 0.00 | 0.00 | 79 | 1016.6 |
| 20260831090044 | 73 | 206 | 5.0 | 12.0 | 0.00 | 0.00 | 0.00 | 79 | 1016.5 |
| 20260831085546 | 73 | 173 | 4.0 | 12.0 | 0.00 | 0.00 | 0.00 | 79 | 1016.5 |
| 20260831085044 | 73 | 162 | 4.0 | 12.0 | 0.00 | 0.00 | 0.00 | 79 | 1016.5 |
| 20260831084543 | 72 | 140 | 3.0 | 11.0 | 0.00 | 0.00 | 0.00 | 80 | 1016.5 |
| 20260831084043 | 72 | 156 | 4.0 | 11.0 | 0.00 | 0.00 | 0.00 | 80 | 1016.5 |
| 20260831083543 | 72 | 173 | 3.0 | 7.0 | 0.00 | 0.00 | 0.00 | 80 | 1016.5 |
| 20260831083047 | 72 | 187 | 3.0 | 12.0 | 0.00 | 0.00 | 0.00 | 80 | 1016.4 |
| 20260831082542 | 72 | 157 | 5.0 | 12.0 | 0.00 | 0.00 | 0.00 | 80 | 1016.4 |
| 20260831082041 | 72 | 163 | 3.0 | 10.0 | 0.00 | 0.00 | 0.00 | 80 | 1016.4 |
| 20260831081540 | 72 | 127 | 4.0 | 10.0 | 0.00 | 0.00 | 0.00 | 81 | 1016.4 |
| 20260831081040 | 72 | 196 | 2.0 | 10.0 | 0.00 | 0.00 | 0.00 | 81 | 1016.4 |
| 20260831080539 | 72 | 190 | 3.0 | 14.0 | 0.00 | 0.00 | 0.00 | 81 | 1016.5 |
| 20260831080039 | 72 | 167 | 4.0 | 14.0 | 0.00 | 0.00 | 0.00 | 81 | 1016.5 |
| 20260831075540 | 72 | 173 | 3.0 | 8.0 | 0.00 | 0.00 | 0.00 | 82 | 1016.6 |
| 20260831075038 | 72 | 156 | 3.0 | 11.0 | 0.00 | 0.00 | 0.00 | 82 | 1016.6 |
| 20260831074541 | 71 | 84 | 2.0 | 11.0 | 0.00 | 0.00 | 0.00 | 82 | 1016.6 |
| 20260831074037 | 71 | 108 | 2.0 | 11.0 | 0.00 | 0.00 | 0.00 | 82 | 1016.5 |
| 20260831073535 | 71 | 181 | 4.0 | 10.0 | 0.00 | 0.00 | 0.00 | 83 | 1016.5 |
| 20260831073046 | 71 | 232 | 5.0 | 10.0 | 0.00 | 0.00 | 0.00 | 83 | 1016.5 |
| 20260831072534 | 71 | 41 | 4.0 | 11.0 | 0.00 | 0.00 | 0.00 | 84 | 1016.6 |
| 20260831072037 | 71 | 130 | 3.0 | 11.0 | 0.00 | 0.00 | 0.00 | 84 | 1016.7 |
| 20260831071533 | 71 | 186 | 4.0 | 9.0 | 0.00 | 0.00 | 0.00 | 84 | 1016.8 |
| 20260831071033 | 71 | 127 | 5.0 | 11.0 | 0.00 | 0.00 | 0.00 | 85 | 1016.7 |
| 20260831070534 | 71 | 142 | 5.0 | 13.0 | 0.00 | 0.00 | 0.00 | 85 | 1016.7 |
| 20260831070039 | 71 | 176 | 4.0 | 12.0 | 0.00 | 0.00 | 0.00 | 85 | 1016.7 |
| 20260831065533 | 71 | 137 | 4.0 | 11.0 | 0.00 | 0.00 | 0.00 | 86 | 1016.7 |
| 20260831065032 | 71 | 135 | 4.0 | 11.0 | 0.00 | 0.00 | 0.00 | 86 | 1016.8 |
| 20260831064632 | 71 | 224 | 4.0 | 9.0 | 0.00 | 0.00 | 0.00 | 86 | 1016.8 |
| 20260831064031 | 70 | 164 | 3.0 | 9.0 | 0.00 | 0.00 | 0.00 | 86 | 1016.9 |
| 20260831063530 | 70 | 168 | 4.0 | 9.0 | 0.00 | 0.00 | 0.00 | 87 | 1016.9 |
| 20260831063030 | 70 | 130 | 4.0 | 12.0 | 0.00 | 0.00 | 0.00 | 87 | 1016.9 |
| 20260831062534 | 70 | 137 | 4.0 | 12.0 | 0.00 | 0.00 | 0.00 | 87 | 1017.0 |
| 20260831062030 | 70 | 186 | 4.0 | 10.0 | 0.00 | 0.00 | 0.00 | 87 | 1017.0 |
| 20260831061535 | 70 | 182 | 4.0 | 14.0 | 0.00 | 0.00 | 0.00 | 87 | 1017.0 |
| 20260831061030 | 70 | 153 | 5.0 | 14.0 | 0.00 | 0.00 | 0.00 | 87 | 1017.0 |
| 20260831060531 | 70 | 196 | 4.0 | 15.0 | 0.00 | 0.00 | 0.00 | 87 | 1016.9 |